Location: Lanoux
(43.1180°N, 1.4255°E)
Time: 10:29:34
(UTC+00:00)

PSLV R/B - Pass Details

Date: 13 December 2025
Orbit: 561 x 587 km, 98.0° (Epoch: 21 January)

Event Time Altitude Azimuth Distance (km) Brightness Sun altitude
Rises 17:39:11 0° 137° (SE) 2,745 6.6 -14.0°
Reaches altitude 10° 17:41:33 10° 125° (SE) 1,857 5.7 -14.4°
Enters shadow 17:42:16 14° 118° (ESE) 1,620 5.3 -14.5°
Exits shadow 17:45:33 25° 51° (NE) 1,172 4.4 -15.1°
Drops below altitude 10° 17:48:17 10° 11° (N) 1,880 5.8 -15.5°
Sets 17:50:42 0° 359° (N) 2,788 6.8 -16.0°
